Time,TemperatureF,DewpointF,PressureIn,WindDirection,WindDirectionDegrees,WindSpeedMPH,WindSpeedGustMPH,Humidity,HourlyPrecipIn,Conditions,Clouds,dailyrainin,SoftwareType,DateUTC
2013-02-18 00:01:00,44.2,19.3,29.71,South,180,5.8,10.1,37,0.00,,,0.00,WUHU216WMR968SP,2013-02-18 06:01:00,
2013-02-18 00:06:00,44.1,19.2,29.71,South,174,5.8,8.1,37,0.00,,,0.00,WUHU216WMR968SP,2013-02-18 06:06:00,
2013-02-18 00:11:00,44.1,19.9,29.71,South,178,5.5,8.3,38,0.00,,,0.00,WUHU216WMR968SP,2013-02-18 06:11:00,
2013-02-18 00:16:00,44.2,20.0,29.71,South,172,4.9,8.3,38,0.00,,,0.00,WUHU216WMR968SP,2013-02-18 06:16:00,
2013-02-18 00:21:00,44.2,20.0,29.71,SSE,167,6.3,8.3,38,0.00,,,0.00,WUHU216WMR968SP,2013-02-18 06:21:00,
2013-02-18 00:26:00,44.4,20.2,29.71,SSE,149,5.4,8.3,38,0.00,,,0.00,WUHU216WMR968SP,2013-02-18 06:26:00,
2013-02-18 00:31:00,44.4,20.2,29.71,SSW,193,4.9,8.3,38,0.00,,,0.00,WUHU216WMR968SP,2013-02-18 06:31:00,
2013-02-18 00:36:00,44.4,20.2,29.71,South,178,4.5,8.1,38,0.00,,,0.00,WUHU216WMR968SP,2013-02-18 06:36:00,
2013-02-18 00:41:00,44.2,20.0,29.71,South,178,6.4,10.5,38,0.00,,,0.00,WUHU216WMR968SP,2013-02-18 06:41:00,
2013-02-18 00:46:00,44.1,19.9,29.71,South,180,4.4,10.5,38,0.00,,,0.00,WUHU216WMR968SP,2013-02-18 06:46:00,
2013-02-18 00:51:00,44.1,19.9,29.71,SSE,155,4.9,7.6,38,0.00,,,0.00,WUHU216WMR968SP,2013-02-18 06:51:00,
2013-02-18 00:56:00,44.2,20.0,29.71,South,178,5.4,7.6,38,0.00,,,0.00,WUHU216WMR968SP,2013-02-18 06:56:00,
2013-02-18 01:01:00,44.2,20.0,29.71,SSE,163,5.1,8.1,38,0.00,,,0.00,WUHU216WMR968SP,2013-02-18 07:01:00,
2013-02-18 01:06:00,44.6,20.3,29.71,SSE,147,6.3,8.3,38,0.00,,,0.00,WUHU216WMR968SP,2013-02-18 07:06:00,
2013-02-18 01:11:00,44.6,20.3,29.71,South,170,5.8,8.3,38,0.00,,,0.00,WUHU216WMR968SP,2013-02-18 07:11:00,
2013-02-18 01:16:00,44.6,20.3,29.71,South,187,5.4,8.3,38,0.00,,,0.00,WUHU216WMR968SP,2013-02-18 07:16:00,
2013-02-18 01:21:00,44.6,20.3,29.71,South,188,5.4,10.5,38,0.00,,,0.00,WUHU216WMR968SP,2013-02-18 07:21:00,
2013-02-18 01:26:00,44.4,20.8,29.71,South,189,5.4,10.5,39,0.00,,,0.00,WUHU216WMR968SP,2013-02-18 07:26:00,
2013-02-18 01:31:00,44.4,20.8,29.71,South,172,7.2,9.2,39,0.00,,,0.00,WUHU216WMR968SP,2013-02-18 07:31:00,
2013-02-18 01:36:00,44.4,20.8,29.71,South,185,5.1,9.2,39,0.00,,,0.00,WUHU216WMR968SP,2013-02-18 07:36:00,
2013-02-18 01:41:00,44.2,20.6,29.71,SSW,199,6.7,10.1,39,0.00,,,0.00,WUHU216WMR968SP,2013-02-18 07:41:00,
2013-02-18 01:46:00,44.2,20.6,29.71,South,179,6.0,10.1,39,0.00,,,0.00,WUHU216WMR968SP,2013-02-18 07:46:00,
2013-02-18 01:51:00,44.1,20.5,29.71,SSW,210,5.4,8.1,39,0.00,,,0.00,WUHU216WMR968SP,2013-02-18 07:51:00,
2013-02-18 01:56:00,44.1,21.1,29.71,South,185,6.7,8.3,40,0.00,,,0.00,WUHU216WMR968SP,2013-02-18 07:56:00,
2013-02-18 02:01:00,44.1,21.1,29.71,South,189,6.0,8.7,40,0.00,,,0.00,WUHU216WMR968SP,2013-02-18 08:01:00,
2013-02-18 02:06:00,44.2,21.2,29.71,South,177,6.4,8.7,40,0.00,,,0.00,WUHU216WMR968SP,2013-02-18 08:06:00,
2013-02-18 02:11:00,44.4,22.0,29.71,SSW,193,6.3,9.6,41,0.00,,,0.00,WUHU216WMR968SP,2013-02-18 08:11:00,
2013-02-18 02:16:00,44.6,22.2,29.71,South,185,8.1,10.5,41,0.00,,,0.00,WUHU216WMR968SP,2013-02-18 08:16:00,
2013-02-18 02:21:00,45.0,22.5,29.71,South,187,7.3,11.0,41,0.00,,,0.00,WUHU216WMR968SP,2013-02-18 08:21:00,
2013-02-18 02:26:00,45.1,22.6,29.71,SSW,194,7.2,11.0,41,0.00,,,0.00,WUHU216WMR968SP,2013-02-18 08:26:00,
2013-02-18 02:31:00,45.1,22.6,29.71,SSW,208,8.3,11.0,41,0.00,,,0.00,WUHU216WMR968SP,2013-02-18 08:31:00,
2013-02-18 02:36:00,45.0,22.5,29.71,South,191,6.7,10.5,41,0.00,,,0.00,WUHU216WMR968SP,2013-02-18 08:36:00,
2013-02-18 02:41:00,44.8,22.3,29.71,South,183,6.3,11.4,41,0.00,,,0.00,WUHU216WMR968SP,2013-02-18 08:41:00,
2013-02-18 02:46:00,44.8,22.9,29.71,South,185,6.0,11.9,42,0.00,,,0.00,WUHU216WMR968SP,2013-02-18 08:46:00,
2013-02-18 02:51:00,44.6,22.7,29.71,SSE,164,6.7,11.9,42,0.00,,,0.00,WUHU216WMR968SP,2013-02-18 08:51:00,
2013-02-18 02:56:00,44.6,23.3,29.71,South,189,6.3,8.3,43,0.00,,,0.00,WUHU216WMR968SP,2013-02-18 08:56:00,
2013-02-18 03:01:00,44.6,23.3,29.71,South,182,6.5,10.1,43,0.00,,,0.00,WUHU216WMR968SP,2013-02-18 09:01:00,
2013-02-18 03:06:00,44.4,23.7,29.71,SSW,192,6.7,11.4,44,0.00,,,0.00,WUHU216WMR968SP,2013-02-18 09:06:00,
2013-02-18 03:11:00,44.1,23.4,29.71,SSW,202,6.7,11.4,44,0.00,,,0.00,WUHU216WMR968SP,2013-02-18 09:11:00,
2013-02-18 03:16:00,44.1,23.4,29.71,SE,143,5.4,10.1,44,0.00,,,0.00,WUHU216WMR968SP,2013-02-18 09:16:00,
2013-02-18 03:21:00,44.1,24.0,29.71,SSW,193,7.6,10.5,45,0.00,,,0.00,WUHU216WMR968SP,2013-02-18 09:21:00,
2013-02-18 03:26:00,44.1,24.0,29.71,SSW,193,8.1,10.5,45,0.00,,,0.00,WUHU216WMR968SP,2013-02-18 09:26:00,
2013-02-18 03:31:00,44.1,24.0,29.71,South,177,7.2,10.5,45,0.00,,,0.00,WUHU216WMR968SP,2013-02-18 09:31:00,
2013-02-18 03:36:00,43.7,23.6,29.71,South,184,6.7,8.7,45,0.00,,,0.00,WUHU216WMR968SP,2013-02-18 09:36:00,
2013-02-18 03:41:00,43.5,24.0,29.71,South,172,6.0,8.3,46,0.00,,,0.00,WUHU216WMR968SP,2013-02-18 09:41:00,
2013-02-18 03:46:00,43.3,23.8,29.71,South,176,6.5,8.7,46,0.00,,,0.00,WUHU216WMR968SP,2013-02-18 09:46:00,
2013-02-18 03:51:00,43.2,24.2,29.71,South,176,5.3,8.7,47,0.00,,,0.00,WUHU216WMR968SP,2013-02-18 09:51:00,
2013-02-18 03:56:00,42.8,23.9,29.71,South,183,4.7,8.1,47,0.00,,,0.00,WUHU216WMR968SP,2013-02-18 09:56:00,
2013-02-18 04:01:00,42.6,24.2,29.71,South,186,4.5,7.6,48,0.00,,,0.00,WUHU216WMR968SP,2013-02-18 10:01:00,
2013-02-18 04:06:00,42.3,23.9,29.71,SSE,153,4.5,6.3,48,0.00,,,0.00,WUHU216WMR968SP,2013-02-18 10:06:00,
2013-02-18 04:11:00,42.1,24.2,29.71,South,171,4.9,8.1,49,0.00,,,0.00,WUHU216WMR968SP,2013-02-18 10:11:00,
2013-02-18 04:16:00,42.1,24.2,29.71,South,180,4.6,8.1,49,0.00,,,0.00,WUHU216WMR968SP,2013-02-18 10:16:00,
2013-02-18 04:21:00,41.9,24.1,29.71,South,188,4.5,6.7,49,0.00,,,0.00,WUHU216WMR968SP,2013-02-18 10:21:00,
2013-02-18 04:26:00,41.7,23.9,29.71,South,177,4.0,6.3,49,0.00,,,0.00,WUHU216WMR968SP,2013-02-18 10:26:00,
2013-02-18 04:31:00,41.5,23.7,29.71,SSE,152,3.6,6.3,49,0.00,,,0.00,WUHU216WMR968SP,2013-02-18 10:31:00,
2013-02-18 04:36:00,41.2,23.4,29.71,South,189,3.1,6.3,49,0.00,,,0.00,WUHU216WMR968SP,2013-02-18 10:36:00,
2013-02-18 04:41:00,41.2,23.4,29.71,South,178,3.8,5.8,49,0.00,,,0.00,WUHU216WMR968SP,2013-02-18 10:41:00,
2013-02-18 04:46:00,40.6,23.4,29.71,South,174,2.7,5.4,50,0.00,,,0.00,WUHU216WMR968SP,2013-02-18 10:46:00,
2013-02-18 04:51:00,40.5,23.3,29.71,SSE,165,3.1,5.4,50,0.00,,,0.00,WUHU216WMR968SP,2013-02-18 10:51:00,
2013-02-18 04:56:00,40.3,23.6,29.71,South,173,3.4,6.3,51,0.00,,,0.00,WUHU216WMR968SP,2013-02-18 10:56:00,
2013-02-18 05:01:00,40.3,23.6,29.71,SSE,165,3.6,6.3,51,0.00,,,0.00,WUHU216WMR968SP,2013-02-18 11:01:00,
2013-02-18 05:07:00,39.9,23.2,29.71,South,185,3.6,5.4,51,0.00,,,0.00,WUHU216WMR968SP,2013-02-18 11:07:00,
2013-02-18 05:12:00,39.9,23.7,29.71,South,187,4.5,5.4,52,0.00,,,0.00,WUHU216WMR968SP,2013-02-18 11:12:00,
2013-02-18 05:17:00,39.9,23.7,29.71,SSE,148,4.5,5.8,52,0.00,,,0.00,WUHU216WMR968SP,2013-02-18 11:17:00,
2013-02-18 05:22:00,39.9,24.1,29.71,South,180,4.5,5.8,53,0.00,,,0.00,WUHU216WMR968SP,2013-02-18 11:22:00,
2013-02-18 05:27:00,40.1,24.3,29.71,South,177,4.1,6.3,53,0.00,,,0.00,WUHU216WMR968SP,2013-02-18 11:27:00,
2013-02-18 05:32:00,40.3,25.0,29.71,SE,136,5.4,8.1,54,0.00,,,0.00,WUHU216WMR968SP,2013-02-18 11:32:00,
2013-02-18 05:37:00,40.3,25.0,29.71,South,189,4.7,8.1,54,0.00,,,0.00,WUHU216WMR968SP,2013-02-18 11:37:00,
2013-02-18 05:42:00,40.5,25.2,29.71,SSW,200,4.5,6.3,54,0.00,,,0.00,WUHU216WMR968SP,2013-02-18 11:42:00,
2013-02-18 05:47:00,40.5,25.2,29.71,South,175,4.9,8.1,54,0.00,,,0.00,WUHU216WMR968SP,2013-02-18 11:47:00,
2013-02-18 05:52:00,40.5,25.2,29.71,South,178,5.2,9.2,54,0.00,,,0.00,WUHU216WMR968SP,2013-02-18 11:52:00,
2013-02-18 05:57:00,40.6,25.3,29.71,South,169,5.4,9.2,54,0.00,,,0.00,WUHU216WMR968SP,2013-02-18 11:57:00,
2013-02-18 06:02:00,40.6,25.3,29.71,South,181,4.9,9.2,54,0.00,,,0.00,WUHU216WMR968SP,2013-02-18 12:02:00,
2013-02-18 06:07:00,40.6,25.7,29.71,SSE,158,5.8,9.2,55,0.00,,,0.00,WUHU216WMR968SP,2013-02-18 12:07:00,
2013-02-18 06:12:00,40.8,25.9,29.71,South,169,7.2,9.2,55,0.00,,,0.00,WUHU216WMR968SP,2013-02-18 12:12:00,
2013-02-18 06:17:00,41.0,25.6,29.71,SSW,198,6.7,10.1,54,0.00,,,0.00,WUHU216WMR968SP,2013-02-18 12:17:00,
2013-02-18 06:22:00,41.0,25.6,29.71,South,179,4.6,10.1,54,0.00,,,0.00,WUHU216WMR968SP,2013-02-18 12:22:00,
2013-02-18 06:28:00,41.0,26.1,29.71,South,175,5.2,7.6,55,0.00,,,0.00,WUHU216WMR968SP,2013-02-18 12:28:00,
2013-02-18 06:33:00,41.2,26.3,29.71,South,171,6.5,8.7,55,0.00,,,0.00,WUHU216WMR968SP,2013-02-18 12:33:00,
2013-02-18 06:38:00,41.4,26.5,29.71,SSW,194,5.8,8.7,55,0.00,,,0.00,WUHU216WMR968SP,2013-02-18 12:38:00,
2013-02-18 06:43:00,41.5,26.5,29.71,South,177,5.8,10.5,55,0.00,,,0.00,WUHU216WMR968SP,2013-02-18 12:43:00,
2013-02-18 06:48:00,41.5,26.5,29.71,SSE,158,6.3,10.5,55,0.00,,,0.00,WUHU216WMR968SP,2013-02-18 12:48:00,
2013-02-18 06:53:00,41.5,26.5,29.71,South,190,7.2,10.1,55,0.00,,,0.00,WUHU216WMR968SP,2013-02-18 12:53:00,
2013-02-18 06:58:00,41.7,26.7,29.71,South,182,5.8,10.1,55,0.00,,,0.00,WUHU216WMR968SP,2013-02-18 12:58:00,
2013-02-18 07:03:00,42.1,27.6,29.71,South,171,4.9,9.2,56,0.00,,,0.00,WUHU216WMR968SP,2013-02-18 13:03:00,
2013-02-18 07:08:00,42.4,27.4,29.71,South,185,6.7,9.2,55,0.00,,,0.00,WUHU216WMR968SP,2013-02-18 13:08:00,
2013-02-18 07:13:00,42.8,27.8,29.71,South,180,7.2,9.2,55,0.00,,,0.00,WUHU216WMR968SP,2013-02-18 13:13:00,
2013-02-18 07:18:00,43.0,27.5,29.71,South,174,5.6,8.7,54,0.00,,,0.00,WUHU216WMR968SP,2013-02-18 13:18:00,
2013-02-18 07:23:00,43.2,27.2,29.71,SSE,151,5.8,8.7,53,0.00,,,0.00,WUHU216WMR968SP,2013-02-18 13:23:00,
2013-02-18 07:28:00,43.3,27.3,29.71,South,186,7.2,8.7,53,0.00,,,0.00,WUHU216WMR968SP,2013-02-18 13:28:00,
2013-02-18 07:33:00,43.5,27.5,29.71,South,171,7.2,11.0,53,0.00,,,0.00,WUHU216WMR968SP,2013-02-18 13:33:00,
2013-02-18 07:38:00,43.9,27.4,29.71,SE,142,7.6,11.0,52,0.00,,,0.00,WUHU216WMR968SP,2013-02-18 13:38:00,
2013-02-18 07:43:00,44.4,27.4,29.71,South,182,7.5,11.0,51,0.00,,,0.00,WUHU216WMR968SP,2013-02-18 13:43:00,
2013-02-18 07:48:00,44.6,27.1,29.71,South,176,8.1,11.0,50,0.00,,,0.00,WUHU216WMR968SP,2013-02-18 13:48:00,
2013-02-18 07:53:00,45.1,27.5,29.71,SSE,149,6.3,10.1,50,0.00,,,0.00,WUHU216WMR968SP,2013-02-18 13:53:00,
2013-02-18 07:58:00,46.4,27.7,29.71,SSE,161,6.7,10.1,48,0.00,,,0.00,WUHU216WMR968SP,2013-02-18 13:58:00,
2013-02-18 08:03:00,47.3,28.0,29.71,SSW,192,6.7,10.5,47,0.00,,,0.00,WUHU216WMR968SP,2013-02-18 14:03:00,
2013-02-18 08:08:00,47.5,27.1,29.71,South,172,6.3,10.5,45,0.00,,,0.00,WUHU216WMR968SP,2013-02-18 14:08:00,
2013-02-18 08:13:00,48.2,27.2,29.71,South,175,6.7,10.5,44,0.00,,,0.00,WUHU216WMR968SP,2013-02-18 14:13:00,
2013-02-18 08:18:00,48.7,26.5,29.71,South,190,7.2,11.9,42,0.00,,,0.00,WUHU216WMR968SP,2013-02-18 14:18:00,
2013-02-18 08:23:00,48.9,26.0,29.71,SSE,150,7.6,11.9,41,0.00,,,0.00,WUHU216WMR968SP,2013-02-18 14:23:00,
2013-02-18 08:28:00,48.9,26.0,29.71,South,178,6.5,12.8,41,0.00,,,0.00,WUHU216WMR968SP,2013-02-18 14:28:00,
2013-02-18 08:33:00,48.9,26.0,29.71,South,183,8.1,12.8,41,0.00,,,0.00,WUHU216WMR968SP,2013-02-18 14:33:00,
2013-02-18 08:38:00,49.1,26.2,29.71,South,177,7.0,12.3,41,0.00,,,0.00,WUHU216WMR968SP,2013-02-18 14:38:00,
2013-02-18 08:43:00,49.1,26.2,29.71,South,178,7.4,11.0,41,0.00,,,0.00,WUHU216WMR968SP,2013-02-18 14:43:00,
2013-02-18 08:48:00,49.5,26.6,29.71,SSW,192,8.1,11.0,41,0.00,,,0.00,WUHU216WMR968SP,2013-02-18 14:48:00,
2013-02-18 08:54:00,49.6,26.1,29.71,South,179,8.2,12.3,40,0.00,,,0.00,WUHU216WMR968SP,2013-02-18 14:54:00,
2013-02-18 08:59:00,50.0,26.4,29.71,South,177,6.4,12.3,40,0.00,,,0.00,WUHU216WMR968SP,2013-02-18 14:59:00,
2013-02-18 09:04:00,50.5,26.3,29.71,South,183,7.6,12.3,39,0.00,,,0.00,WUHU216WMR968SP,2013-02-18 15:04:00,
2013-02-18 09:09:00,51.1,26.8,29.71,South,176,9.1,12.8,39,0.00,,,0.00,WUHU216WMR968SP,2013-02-18 15:09:00,
2013-02-18 09:14:00,51.3,26.3,29.71,SSE,152,8.3,12.8,38,0.00,,,0.00,WUHU216WMR968SP,2013-02-18 15:14:00,
2013-02-18 09:19:00,51.6,26.6,29.71,South,179,9.6,12.8,38,0.00,,,0.00,WUHU216WMR968SP,2013-02-18 15:19:00,
2013-02-18 09:24:00,52.9,27.1,29.68,SSW,197,9.6,12.8,37,0.00,,,0.00,WUHU216WMR968SP,2013-02-18 15:24:00,
2013-02-18 09:29:00,53.6,27.1,29.68,South,179,8.6,12.8,36,0.00,,,0.00,WUHU216WMR968SP,2013-02-18 15:29:00,
2013-02-18 09:34:00,54.1,27.5,29.68,SSE,154,9.6,16.8,36,0.00,,,0.00,WUHU216WMR968SP,2013-02-18 15:34:00,
2013-02-18 09:39:00,54.7,28.0,29.68,South,176,10.1,17.0,36,0.00,,,0.00,WUHU216WMR968SP,2013-02-18 15:39:00,
2013-02-18 09:44:00,55.0,28.3,29.68,SSW,195,12.8,17.4,36,0.00,,,0.00,WUHU216WMR968SP,2013-02-18 15:44:00,
2013-02-18 09:49:00,55.2,28.5,29.68,South,186,10.5,17.4,36,0.00,,,0.00,WUHU216WMR968SP,2013-02-18 15:49:00,
2013-02-18 09:54:00,55.6,28.8,29.68,South,173,8.9,16.8,36,0.00,,,0.00,WUHU216WMR968SP,2013-02-18 15:54:00,
2013-02-18 10:00:00,55.9,29.1,29.68,South,176,11.0,13.2,36,0.00,,,0.00,WUHU216WMR968SP,2013-02-18 16:00:00,
2013-02-18 10:05:00,56.1,28.6,29.68,South,175,11.2,17.4,35,0.00,,,0.00,WUHU216WMR968SP,2013-02-18 16:05:00,
2013-02-18 10:10:00,56.5,28.9,29.68,South,191,11.9,17.4,35,0.00,,,0.00,WUHU216WMR968SP,2013-02-18 16:10:00,
2013-02-18 10:15:00,56.5,28.9,29.68,South,189,8.7,15.4,35,0.00,,,0.00,WUHU216WMR968SP,2013-02-18 16:15:00,
2013-02-18 10:20:00,56.8,29.2,29.68,SSE,167,10.3,15.4,35,0.00,,,0.00,WUHU216WMR968SP,2013-02-18 16:20:00,
2013-02-18 10:25:00,57.2,29.6,29.68,SE,133,10.5,16.8,35,0.00,,,0.00,WUHU216WMR968SP,2013-02-18 16:25:00,
2013-02-18 10:30:00,57.9,30.2,29.68,South,176,11.4,16.8,35,0.00,,,0.00,WUHU216WMR968SP,2013-02-18 16:30:00,
2013-02-18 10:35:00,57.4,29.7,29.68,SSW,202,10.1,15.0,35,0.00,,,0.00,WUHU216WMR968SP,2013-02-18 16:35:00,
2013-02-18 10:40:00,56.8,29.2,29.68,SSE,160,13.2,17.9,35,0.00,,,0.00,WUHU216WMR968SP,2013-02-18 16:40:00,
2013-02-18 10:45:00,56.7,29.8,29.68,South,191,11.9,17.9,36,0.00,,,0.00,WUHU216WMR968SP,2013-02-18 16:45:00,
2013-02-18 10:50:00,56.8,29.9,29.65,SSW,197,8.7,15.4,36,0.00,,,0.00,WUHU216WMR968SP,2013-02-18 16:50:00,
2013-02-18 10:55:00,56.7,29.8,29.65,South,182,8.7,13.6,36,0.00,,,0.00,WUHU216WMR968SP,2013-02-18 16:55:00,
2013-02-18 11:00:00,56.3,29.5,29.65,South,173,8.9,15.4,36,0.00,,,0.00,WUHU216WMR968SP,2013-02-18 17:00:00,
2013-02-18 11:05:00,55.8,29.0,29.65,SSW,192,13.2,15.4,36,0.00,,,0.00,WUHU216WMR968SP,2013-02-18 17:05:00,
2013-02-18 11:10:00,55.6,29.5,29.65,South,173,8.7,15.0,37,0.00,,,0.00,WUHU216WMR968SP,2013-02-18 17:10:00,
2013-02-18 11:15:00,55.4,29.3,29.65,South,184,10.5,14.5,37,0.00,,,0.00,WUHU216WMR968SP,2013-02-18 17:15:00,
2013-02-18 11:20:00,55.6,29.5,29.65,South,176,9.8,15.0,37,0.00,,,0.00,WUHU216WMR968SP,2013-02-18 17:20:00,
2013-02-18 11:25:00,55.6,29.5,29.65,SE,143,10.1,20.1,37,0.00,,,0.00,WUHU216WMR968SP,2013-02-18 17:25:00,
2013-02-18 11:30:00,55.6,29.5,29.65,South,181,9.2,20.1,37,0.00,,,0.00,WUHU216WMR968SP,2013-02-18 17:30:00,
2013-02-18 11:35:00,55.6,30.2,29.65,South,182,9.9,20.1,38,0.00,,,0.00,WUHU216WMR968SP,2013-02-18 17:35:00,
2013-02-18 11:40:00,55.8,30.4,29.65,SSW,196,8.3,14.5,38,0.00,,,0.00,WUHU216WMR968SP,2013-02-18 17:40:00,
2013-02-18 11:45:00,56.3,32.0,29.65,South,179,8.7,13.2,38,0.00,,,0.00,WUHU216WMR968SP,2013-02-18 17:45:00,
2013-02-18 11:50:00,56.3,32.0,29.62,SSE,158,10.5,17.0,37,0.00,,,0.00,WUHU216WMR968SP,2013-02-18 17:50:00,
2013-02-18 11:55:00,56.5,32.0,29.62,SSE,158,9.6,17.0,38,0.00,,,0.00,WUHU216WMR968SP,2013-02-18 17:55:00,
2013-02-18 12:00:00,57.0,32.0,29.62,South,179,7.9,15.4,37,0.00,,,0.00,WUHU216WMR968SP,2013-02-18 18:00:00,
2013-02-18 12:05:00,57.6,30.6,29.62,SSW,199,12.8,16.8,36,0.00,,,0.00,WUHU216WMR968SP,2013-02-18 18:05:00,
2013-02-18 12:11:00,57.9,30.9,29.62,SSE,162,9.2,16.8,36,0.00,,,0.00,WUHU216WMR968SP,2013-02-18 18:11:00,
2013-02-18 12:16:00,57.7,30.7,29.62,South,181,7.4,15.0,36,0.00,,,0.00,WUHU216WMR968SP,2013-02-18 18:16:00,
2013-02-18 12:21:00,57.2,30.3,29.59,South,173,8.9,15.9,36,0.00,,,0.00,WUHU216WMR968SP,2013-02-18 18:21:00,
2013-02-18 12:26:00,56.8,32.0,29.59,SSW,196,9.6,15.9,37,0.00,,,0.00,WUHU216WMR968SP,2013-02-18 18:26:00,
2013-02-18 12:31:00,56.5,32.0,29.59,South,187,12.3,17.4,37,0.00,,,0.00,WUHU216WMR968SP,2013-02-18 18:31:00,
2013-02-18 12:36:00,56.3,32.0,29.59,South,189,10.5,17.0,37,0.00,,,0.00,WUHU216WMR968SP,2013-02-18 18:36:00,
2013-02-18 12:41:00,56.3,32.0,29.59,South,175,11.4,15.4,37,0.00,,,0.00,WUHU216WMR968SP,2013-02-18 18:41:00,
2013-02-18 12:46:00,56.3,32.0,29.59,South,188,8.4,15.4,37,0.00,,,0.00,WUHU216WMR968SP,2013-02-18 18:46:00,
2013-02-18 12:51:00,56.1,30.6,29.59,South,172,8.9,15.4,38,0.00,,,0.00,WUHU216WMR968SP,2013-02-18 18:51:00,
2013-02-18 12:56:00,56.1,30.6,29.59,SSE,156,7.2,13.2,38,0.00,,,0.00,WUHU216WMR968SP,2013-02-18 18:56:00,
2013-02-18 13:01:00,56.3,32.0,29.59,SSW,196,9.2,14.1,38,0.00,,,0.00,WUHU216WMR968SP,2013-02-18 19:01:00,
2013-02-18 13:06:00,56.5,32.0,29.56,SSW,195,7.2,14.1,39,0.00,,,0.00,WUHU216WMR968SP,2013-02-18 19:06:00,
2013-02-18 13:12:00,56.7,33.8,29.56,South,169,9.3,16.3,40,0.00,,,0.00,WUHU216WMR968SP,2013-02-18 19:12:00,
2013-02-18 13:17:00,56.1,32.0,29.56,SSW,200,8.7,16.3,42,0.00,,,0.00,WUHU216WMR968SP,2013-02-18 19:17:00,
2013-02-18 13:22:00,55.9,32.0,29.56,SSE,151,10.1,15.4,42,0.00,,,0.00,WUHU216WMR968SP,2013-02-18 19:22:00,
2013-02-18 13:27:00,56.1,32.0,29.56,SSW,207,7.6,15.4,42,0.00,,,0.00,WUHU216WMR968SP,2013-02-18 19:27:00,
2013-02-18 13:32:00,56.5,33.8,29.56,SSE,165,7.7,13.2,41,0.00,,,0.00,WUHU216WMR968SP,2013-02-18 19:32:00,
2013-02-18 13:37:00,57.2,32.0,29.53,SSE,155,10.0,18.8,39,0.00,,,0.00,WUHU216WMR968SP,2013-02-18 19:37:00,
2013-02-18 13:42:00,57.7,32.0,29.53,SSW,195,11.0,18.8,38,0.00,,,0.00,WUHU216WMR968SP,2013-02-18 19:42:00,
2013-02-18 13:47:00,57.9,32.0,29.53,South,173,8.1,17.0,38,0.00,,,0.00,WUHU216WMR968SP,2013-02-18 19:47:00,
2013-02-18 13:52:00,58.5,33.8,29.53,South,185,9.0,17.0,38,0.00,,,0.00,WUHU216WMR968SP,2013-02-18 19:52:00,
2013-02-18 13:57:00,59.2,32.0,29.53,South,181,9.4,16.8,37,0.00,,,0.00,WUHU216WMR968SP,2013-02-18 19:57:00,
2013-02-18 14:02:00,58.6,33.8,29.53,SSE,163,10.1,16.8,38,0.00,,,0.00,WUHU216WMR968SP,2013-02-18 20:02:00,
2013-02-18 14:07:00,57.6,33.8,29.53,South,177,8.4,16.8,40,0.00,,,0.00,WUHU216WMR968SP,2013-02-18 20:07:00,
2013-02-18 14:12:00,57.0,35.6,29.53,South,172,8.3,15.4,43,0.00,,,0.00,WUHU216WMR968SP,2013-02-18 20:12:00,
2013-02-18 14:17:00,56.5,35.6,29.53,South,181,9.6,15.4,44,0.00,,,0.00,WUHU216WMR968SP,2013-02-18 20:17:00,
2013-02-18 14:22:00,56.5,35.6,29.50,SSE,153,8.7,15.4,45,0.00,,,0.00,WUHU216WMR968SP,2013-02-18 20:22:00,
2013-02-18 14:27:00,56.7,35.6,29.50,South,175,8.3,15.0,45,0.00,,,0.00,WUHU216WMR968SP,2013-02-18 20:27:00,
2013-02-18 14:32:00,56.8,35.6,29.50,South,182,8.3,12.8,45,0.00,,,0.00,WUHU216WMR968SP,2013-02-18 20:32:00,
2013-02-18 14:37:00,56.5,35.6,29.50,South,182,8.7,13.2,45,0.00,,,0.00,WUHU216WMR968SP,2013-02-18 20:37:00,
2013-02-18 14:42:00,56.7,37.4,29.50,South,191,9.2,15.0,46,0.00,,,0.00,WUHU216WMR968SP,2013-02-18 20:42:00,
2013-02-18 14:47:00,57.2,35.6,29.50,South,174,8.3,15.0,44,0.00,,,0.00,WUHU216WMR968SP,2013-02-18 20:47:00,
2013-02-18 14:52:00,57.4,33.8,29.47,South,181,10.1,20.1,42,0.00,,,0.00,WUHU216WMR968SP,2013-02-18 20:52:00,
2013-02-18 14:58:00,57.4,35.6,29.47,South,183,11.4,20.1,43,0.00,,,0.00,WUHU216WMR968SP,2013-02-18 20:58:00,
2013-02-18 15:03:00,57.6,35.6,29.47,South,174,9.4,17.9,44,0.00,,,0.00,WUHU216WMR968SP,2013-02-18 21:03:00,
2013-02-18 15:08:00,57.6,35.6,29.47,South,170,10.0,16.8,44,0.00,,,0.00,WUHU216WMR968SP,2013-02-18 21:08:00,
2013-02-18 15:13:00,57.7,35.6,29.47,SSE,164,9.7,16.8,45,0.00,,,0.00,WUHU216WMR968SP,2013-02-18 21:13:00,
2013-02-18 15:18:00,58.1,37.4,29.47,South,188,13.6,17.4,43,0.00,,,0.00,WUHU216WMR968SP,2013-02-18 21:18:00,
2013-02-18 15:23:00,58.5,35.6,29.44,South,172,11.5,22.4,42,0.00,,,0.00,WUHU216WMR968SP,2013-02-18 21:23:00,
2013-02-18 15:28:00,58.3,35.6,29.44,SSE,153,15.4,22.4,42,0.00,,,0.00,WUHU216WMR968SP,2013-02-18 21:28:00,
2013-02-18 15:33:00,57.9,35.6,29.44,South,178,11.4,20.6,44,0.00,,,0.00,WUHU216WMR968SP,2013-02-18 21:33:00,
2013-02-18 15:38:00,57.7,35.6,29.44,South,173,11.7,19.2,45,0.00,,,0.00,WUHU216WMR968SP,2013-02-18 21:38:00,
2013-02-18 15:43:00,57.7,35.6,29.44,South,178,11.0,19.2,45,0.00,,,0.00,WUHU216WMR968SP,2013-02-18 21:43:00,
2013-02-18 15:48:00,57.6,35.6,29.44,SSW,192,9.6,17.4,45,0.00,,,0.00,WUHU216WMR968SP,2013-02-18 21:48:00,
2013-02-18 15:53:00,56.8,37.4,29.44,SSW,195,13.6,19.7,47,0.00,,,0.00,WUHU216WMR968SP,2013-02-18 21:53:00,
2013-02-18 15:58:00,56.5,37.4,29.44,South,179,9.8,19.7,48,0.00,,,0.00,WUHU216WMR968SP,2013-02-18 21:58:00,
2013-02-18 16:03:00,56.3,37.4,29.44,South,170,10.5,17.4,49,0.00,,,0.00,WUHU216WMR968SP,2013-02-18 22:03:00,
2013-02-18 16:08:00,56.1,37.4,29.44,South,176,9.3,17.0,51,0.00,,,0.00,WUHU216WMR968SP,2013-02-18 22:08:00,
2013-02-18 16:13:00,55.8,37.4,29.44,SSE,158,9.2,23.3,52,0.00,,,0.00,WUHU216WMR968SP,2013-02-18 22:13:00,
2013-02-18 16:18:00,55.8,37.4,29.44,SSE,166,8.0,23.3,52,0.00,,,0.00,WUHU216WMR968SP,2013-02-18 22:18:00,
2013-02-18 16:23:00,55.8,37.4,29.44,South,172,9.0,15.0,52,0.00,,,0.00,WUHU216WMR968SP,2013-02-18 22:23:00,
2013-02-18 16:28:00,55.4,39.2,29.44,SSE,160,8.3,15.4,54,0.00,,,0.00,WUHU216WMR968SP,2013-02-18 22:28:00,
2013-02-18 16:33:00,55.4,39.2,29.44,South,172,8.8,15.4,54,0.00,,,0.00,WUHU216WMR968SP,2013-02-18 22:33:00,
2013-02-18 16:38:00,55.6,39.2,29.41,SSE,165,7.6,11.0,54,0.00,,,0.00,WUHU216WMR968SP,2013-02-18 22:38:00,
2013-02-18 16:43:00,55.4,39.2,29.41,South,186,8.1,11.0,53,0.00,,,0.00,WUHU216WMR968SP,2013-02-18 22:43:00,
2013-02-18 16:48:00,55.2,39.2,29.41,SSE,163,8.2,12.3,54,0.00,,,0.00,WUHU216WMR968SP,2013-02-18 22:48:00,
2013-02-18 16:53:00,55.2,39.2,29.41,SSE,151,7.6,13.2,53,0.00,,,0.00,WUHU216WMR968SP,2013-02-18 22:53:00,
2013-02-18 16:58:00,55.2,39.2,29.41,SE,132,8.3,13.2,53,0.00,,,0.00,WUHU216WMR968SP,2013-02-18 22:58:00,
2013-02-18 17:03:00,55.2,39.2,29.41,South,179,7.3,11.0,53,0.00,,,0.00,WUHU216WMR968SP,2013-02-18 23:03:00,
2013-02-18 17:08:00,55.4,37.4,29.38,SSE,165,7.6,11.0,52,0.00,,,0.00,WUHU216WMR968SP,2013-02-18 23:08:00,
2013-02-18 17:13:00,55.4,37.4,29.38,South,176,8.3,15.4,51,0.00,,,0.00,WUHU216WMR968SP,2013-02-18 23:13:00,
2013-02-18 17:18:00,55.6,37.4,29.38,South,182,9.6,15.4,50,0.00,,,0.00,WUHU216WMR968SP,2013-02-18 23:18:00,
2013-02-18 17:24:00,55.9,37.4,29.38,South,170,9.2,12.8,51,0.00,,,0.00,WUHU216WMR968SP,2013-02-18 23:24:00,
2013-02-18 17:29:00,55.9,37.4,29.38,South,179,9.7,12.8,52,0.00,,,0.00,WUHU216WMR968SP,2013-02-18 23:29:00,
2013-02-18 17:34:00,55.2,39.2,29.38,South,169,8.4,11.9,54,0.00,,,0.00,WUHU216WMR968SP,2013-02-18 23:34:00,
2013-02-18 17:39:00,54.3,39.2,29.38,South,183,7.7,12.8,58,0.00,,,0.00,WUHU216WMR968SP,2013-02-18 23:39:00,
2013-02-18 17:44:00,53.2,42.8,29.38,South,176,6.4,12.8,65,0.00,,,0.00,WUHU216WMR968SP,2013-02-18 23:44:00,
2013-02-18 17:49:00,52.7,44.6,29.38,South,176,8.0,13.2,70,0.00,,,0.00,WUHU216WMR968SP,2013-02-18 23:49:00,
2013-02-18 17:54:00,52.5,42.8,29.38,South,179,7.2,13.2,72,0.00,,,0.00,WUHU216WMR968SP,2013-02-18 23:54:00,
2013-02-18 17:59:00,52.5,44.6,29.38,South,187,8.1,12.3,75,0.00,,,0.00,WUHU216WMR968SP,2013-02-18 23:59:00,
2013-02-18 18:04:00,52.3,44.6,29.38,SSE,153,7.2,12.3,76,0.00,,,0.00,WUHU216WMR968SP,2013-02-19 00:04:00,
2013-02-18 18:09:00,52.3,44.6,29.38,SSE,153,7.6,11.9,78,0.00,,,0.00,WUHU216WMR968SP,2013-02-19 00:09:00,
2013-02-18 18:14:00,52.5,46.4,29.38,SSW,192,7.6,11.9,80,0.00,,,0.00,WUHU216WMR968SP,2013-02-19 00:14:00,
2013-02-18 18:19:00,52.5,46.4,29.38,South,169,6.4,10.1,81,0.00,,,0.00,WUHU216WMR968SP,2013-02-19 00:19:00,
2013-02-18 18:24:00,52.5,46.4,29.38,South,187,9.2,10.5,81,0.00,,,0.00,WUHU216WMR968SP,2013-02-19 00:24:00,
2013-02-18 18:29:00,52.5,46.4,29.38,South,173,9.2,17.0,82,0.00,,,0.00,WUHU216WMR968SP,2013-02-19 00:29:00,
2013-02-18 18:34:00,52.5,46.4,29.38,SSE,151,9.2,17.0,83,0.00,,,0.00,WUHU216WMR968SP,2013-02-19 00:34:00,
2013-02-18 18:39:00,52.5,46.4,29.38,South,180,8.1,15.0,83,0.00,,,0.00,WUHU216WMR968SP,2013-02-19 00:39:00,
2013-02-18 18:44:00,52.7,48.2,29.38,South,185,9.1,17.4,84,0.00,,,0.00,WUHU216WMR968SP,2013-02-19 00:44:00,
2013-02-18 18:49:00,52.7,48.2,29.38,South,180,11.0,17.4,84,0.00,,,0.00,WUHU216WMR968SP,2013-02-19 00:49:00,
2013-02-18 18:54:00,52.5,48.2,29.38,South,189,9.6,17.0,85,0.00,,,0.00,WUHU216WMR968SP,2013-02-19 00:54:00,
2013-02-18 18:59:00,52.5,48.2,29.38,SSW,194,8.3,17.0,85,0.00,,,0.00,WUHU216WMR968SP,2013-02-19 00:59:00,
2013-02-18 19:05:00,52.5,48.2,29.38,South,170,8.5,19.7,85,0.00,,,0.00,WUHU216WMR968SP,2013-02-19 01:05:00,
2013-02-18 19:10:00,52.5,48.2,29.38,SSW,212,8.4,19.7,85,0.00,,,0.00,WUHU216WMR968SP,2013-02-19 01:10:00,
2013-02-18 19:15:00,52.9,50.0,29.38,SSW,203,9.2,19.2,85,0.00,,,0.00,WUHU216WMR968SP,2013-02-19 01:15:00,
2013-02-18 19:20:00,52.7,50.0,29.38,South,175,17.9,30.2,85,0.00,,,0.00,WUHU216WMR968SP,2013-02-19 01:20:00,
2013-02-18 19:25:00,52.9,50.0,29.38,SSW,199,16.8,30.2,85,0.00,,,0.00,WUHU216WMR968SP,2013-02-19 01:25:00,
2013-02-18 19:30:00,52.7,50.0,29.38,SW,229,15.4,28.4,85,0.00,,,0.00,WUHU216WMR968SP,2013-02-19 01:30:00,
2013-02-18 19:35:00,52.7,50.0,29.41,SSW,204,12.0,23.7,85,0.00,,,0.00,WUHU216WMR968SP,2013-02-19 01:35:00,
2013-02-18 19:40:00,52.7,50.0,29.41,WSW,244,4.5,21.0,86,0.00,,,0.00,WUHU216WMR968SP,2013-02-19 01:40:00,
2013-02-18 19:45:00,52.5,48.2,29.41,SSW,207,3.6,15.4,86,0.00,,,0.00,WUHU216WMR968SP,2013-02-19 01:45:00,
2013-02-18 19:50:00,52.5,48.2,29.44,SSW,210,11.0,15.9,86,0.00,,,0.00,WUHU216WMR968SP,2013-02-19 01:50:00,
2013-02-18 19:55:00,52.3,48.2,29.44,South,188,8.4,15.9,87,0.00,,,0.00,WUHU216WMR968SP,2013-02-19 01:55:00,
2013-02-18 20:00:00,52.3,48.2,29.44,South,185,10.1,15.4,87,0.00,,,0.00,WUHU216WMR968SP,2013-02-19 02:00:00,
2013-02-18 20:05:00,52.3,48.2,29.44,South,176,14.0,22.8,88,0.00,,,0.00,WUHU216WMR968SP,2013-02-19 02:05:00,
2013-02-18 20:10:00,52.3,48.2,29.44,SE,138,8.7,22.8,88,0.00,,,0.00,WUHU216WMR968SP,2013-02-19 02:10:00,
2013-02-18 20:15:00,52.2,48.2,29.44,South,178,10.3,14.5,89,0.00,,,0.00,WUHU216WMR968SP,2013-02-19 02:15:00,
2013-02-18 20:20:00,52.2,48.2,29.41,SSE,152,12.8,17.9,89,0.00,,,0.00,WUHU216WMR968SP,2013-02-19 02:20:00,
2013-02-18 20:25:00,52.2,48.2,29.41,SSE,156,9.2,17.9,90,0.00,,,0.00,WUHU216WMR968SP,2013-02-19 02:25:00,
2013-02-18 20:30:00,52.2,48.2,29.41,South,183,9.5,12.3,90,0.00,,,0.00,WUHU216WMR968SP,2013-02-19 02:30:00,
2013-02-18 20:35:00,52.0,48.2,29.44,SSW,201,5.8,12.3,90,0.00,,,0.00,WUHU216WMR968SP,2013-02-19 02:35:00,
2013-02-18 20:40:00,52.2,50.0,29.44,WNW,292,0.0,8.1,91,0.00,,,0.00,WUHU216WMR968SP,2013-02-19 02:40:00,
2013-02-18 20:46:00,52.5,50.0,29.44,WNW,294,2.7,4.0,91,0.00,,,0.00,WUHU216WMR968SP,2013-02-19 02:46:00,
2013-02-18 20:51:00,52.7,51.8,29.47,NW,313,4.0,6.3,92,0.00,,,0.00,WUHU216WMR968SP,2013-02-19 02:51:00,
2013-02-18 20:56:00,52.5,50.0,29.47,NW,304,2.2,6.3,93,0.00,,,0.00,WUHU216WMR968SP,2013-02-19 02:56:00,
2013-02-18 21:01:00,52.5,50.0,29.47,West,278,0.0,6.3,93,0.00,,,0.00,WUHU216WMR968SP,2013-02-19 03:01:00,
2013-02-18 21:06:00,52.3,50.0,29.50,NNW,341,0.0,5.4,93,0.00,,,0.00,WUHU216WMR968SP,2013-02-19 03:06:00,
2013-02-18 21:11:00,52.3,50.0,29.50,South,191,0.0,3.6,93,0.00,,,0.00,WUHU216WMR968SP,2013-02-19 03:11:00,
2013-02-18 21:16:00,52.3,50.0,29.50,SSW,212,0.0,0.0,93,0.00,,,0.00,WUHU216WMR968SP,2013-02-19 03:16:00,
2013-02-18 21:22:00,52.2,50.0,29.50,SSW,211,0.0,0.0,93,0.00,,,0.00,WUHU216WMR968SP,2013-02-19 03:22:00,
2013-02-18 21:27:00,52.2,50.0,29.50,SSE,162,6.3,7.6,93,0.00,,,0.00,WUHU216WMR968SP,2013-02-19 03:27:00,
2013-02-18 21:31:00,52.2,50.0,29.50,SSW,197,6.6,10.1,93,0.00,,,0.00,WUHU216WMR968SP,2013-02-19 03:31:00,
2013-02-18 21:37:00,52.2,50.0,29.50,South,188,5.7,10.1,93,0.00,,,0.00,WUHU216WMR968SP,2013-02-19 03:37:00,
2013-02-18 21:42:00,52.0,50.0,29.50,South,182,5.5,8.1,93,0.00,,,0.00,WUHU216WMR968SP,2013-02-19 03:42:00,
2013-02-18 21:47:00,52.0,50.0,29.50,South,186,4.8,8.1,93,0.00,,,0.00,WUHU216WMR968SP,2013-02-19 03:47:00,
2013-02-18 21:52:00,51.8,50.0,29.47,South,177,4.6,7.6,93,0.00,,,0.00,WUHU216WMR968SP,2013-02-19 03:52:00,
2013-02-18 21:57:00,51.6,50.0,29.47,South,182,4.5,7.6,94,0.00,,,0.00,WUHU216WMR968SP,2013-02-19 03:57:00,
2013-02-18 22:02:00,51.3,50.0,29.47,South,187,4.0,8.3,94,0.00,,,0.00,WUHU216WMR968SP,2013-02-19 04:02:00,
2013-02-18 22:07:00,51.1,50.0,29.47,SSW,198,4.5,8.3,94,0.00,,,0.00,WUHU216WMR968SP,2013-02-19 04:07:00,
2013-02-18 22:12:00,50.9,50.0,29.47,South,188,4.5,8.1,94,0.00,,,0.00,WUHU216WMR968SP,2013-02-19 04:12:00,
2013-02-18 22:17:00,50.9,50.0,29.47,SW,217,4.9,8.1,94,0.00,,,0.00,WUHU216WMR968SP,2013-02-19 04:17:00,
2013-02-18 22:22:00,50.9,50.0,29.47,SSW,202,2.7,6.7,94,0.00,,,0.00,WUHU216WMR968SP,2013-02-19 04:22:00,
2013-02-18 22:27:00,50.9,50.0,29.47,South,176,4.0,7.6,94,0.00,,,0.00,WUHU216WMR968SP,2013-02-19 04:27:00,
2013-02-18 22:32:00,50.9,50.0,29.47,SSW,198,3.6,7.6,94,0.00,,,0.00,WUHU216WMR968SP,2013-02-19 04:32:00,
2013-02-18 22:37:00,50.9,50.0,29.50,SSW,198,3.0,5.8,94,0.00,,,0.00,WUHU216WMR968SP,2013-02-19 04:37:00,
2013-02-18 22:42:00,51.1,50.0,29.50,SSW,202,4.0,6.7,94,0.00,,,0.00,WUHU216WMR968SP,2013-02-19 04:42:00,
2013-02-18 22:48:00,51.1,50.0,29.50,SSW,210,3.6,8.3,94,0.00,,,0.00,WUHU216WMR968SP,2013-02-19 04:48:00,
2013-02-18 22:53:00,51.3,50.0,29.50,SW,216,3.1,8.3,94,0.00,,,0.00,WUHU216WMR968SP,2013-02-19 04:53:00,
2013-02-18 22:58:00,51.4,50.0,29.50,SSW,205,3.6,6.3,94,0.00,,,0.00,WUHU216WMR968SP,2013-02-19 04:58:00,
2013-02-18 23:00:00,51.4,50.0,29.50,SW,224,5.4,8.1,94,0.00,,,0.00,WUHU216WMR968SP,2013-02-19 05:00:00,
2013-02-18 23:01:00,51.4,50.0,29.50,SSW,209,4.9,8.1,94,0.00,,,0.00,WUHU216WMR968SP,2013-02-19 05:01:00,
2013-02-18 23:06:00,51.6,50.0,29.50,SW,215,5.7,8.3,95,0.00,,,0.00,WUHU216WMR968SP,2013-02-19 05:06:00,
2013-02-18 23:11:00,51.6,50.0,29.50,SW,223,3.6,8.3,95,0.00,,,0.00,WUHU216WMR968SP,2013-02-19 05:11:00,
2013-02-18 23:16:00,51.8,50.0,29.50,SSW,202,0.0,7.6,94,0.00,,,0.00,WUHU216WMR968SP,2013-02-19 05:16:00,
2013-02-18 23:21:00,51.8,50.0,29.50,SW,225,0.0,7.6,94,0.00,,,0.00,WUHU216WMR968SP,2013-02-19 05:21:00,
2013-02-18 23:26:00,51.8,50.0,29.50,NW,307,5.4,10.5,95,0.00,,,0.00,WUHU216WMR968SP,2013-02-19 05:26:00,
2013-02-18 23:31:00,50.0,48.2,29.50,NW,314,5.6,13.2,94,0.00,,,0.00,WUHU216WMR968SP,2013-02-19 05:31:00,
2013-02-18 23:36:00,48.7,46.4,29.53,NW,311,5.4,13.2,93,0.00,,,0.00,WUHU216WMR968SP,2013-02-19 05:36:00,
2013-02-18 23:41:00,47.7,44.6,29.53,NW,316,7.2,11.0,89,0.00,,,0.00,WUHU216WMR968SP,2013-02-19 05:41:00,
2013-02-18 23:46:00,46.8,41.0,29.53,West,275,4.0,11.0,83,0.00,,,0.00,WUHU216WMR968SP,2013-02-19 05:46:00,
2013-02-18 23:52:00,46.2,41.0,29.56,West,279,3.6,8.7,81,0.00,,,0.00,WUHU216WMR968SP,2013-02-19 05:52:00,
2013-02-18 23:57:00,46.2,39.2,29.56,WNW,297,4.0,6.3,78,0.00,,,0.00,WUHU216WMR968SP,2013-02-19 05:57:00,